This is the latest recevied weather packets stored in our database for station/object AF9W-5. If no packets are shown the sender has not sent any weather packets the latest 10 day(s).
| Time | Temp. | Humidity | Pressure | Rain* | Wind** | Luminosity | Snow |
|---|---|---|---|---|---|---|---|
| 1777553049 | 15.56° C | 31% | 1011.3 hPa | 0 mm | - | 3 W/m² | - |
| 1777552744 | 15° C | 34% | 1011.4 hPa | 0 mm | - | 1 W/m² | - |
| 1777552441 | 15° C | 36% | 1011.5 hPa | 0 mm | - | 1 W/m² | - |
| 1777552137 | 15° C | 34% | 1011.5 hPa | 0 mm | - | 0 W/m² | - |
| 1777551835 | 15.56° C | 34% | 1011.3 hPa | 0 mm | - | 0 W/m² | - |
| 1777551532 | 15.56° C | 33% | 1011.1 hPa | 0 mm | - | 0 W/m² | - |
| 1777551228 | 15.56° C | 33% | 1011.1 hPa | 0 mm | - | 0 W/m² | - |
| 1777550925 | 15.56° C | 33% | 1011.2 hPa | 0 mm | - | 0 W/m² | - |
| 1777550622 | 15.56° C | 32% | 1011.3 hPa | 0 mm | - | 0 W/m² | - |
| 1777550319 | 16.11° C | 31% | 1011.3 hPa | 0 mm | - | 0 W/m² | - |
| 1777550015 | 16.11° C | 31% | 1011.4 hPa | 0 mm | - | 0 W/m² | - |
| 1777549712 | 16.11° C | 30% | 1011.1 hPa | 0 mm | - | 0 W/m² | - |
| 1777549412 | 16.11° C | 31% | 1011.5 hPa | 0 mm | - | 0 W/m² | - |
| 1777549110 | 15.56° C | 33% | 1011.3 hPa | 0 mm | - | 0 W/m² | - |
| 1777548806 | 15.56° C | 33% | 1011.3 hPa | 0 mm | - | 0 W/m² | - |
| 1777548503 | 15.56° C | 33% | 1011.3 hPa | 0 mm | - | 0 W/m² | - |
| 1777548200 | 15.56° C | 33% | 1011.3 hPa | 0 mm | - | 0 W/m² | - |
| 1777547896 | 15.56° C | 33% | 1011.3 hPa | 0 mm | - | 0 W/m² | - |
| 1777547592 | 15.56° C | 33% | 1011.4 hPa | 0 mm | - | 0 W/m² | - |
| 1777547289 | 15.56° C | 33% | 1011.8 hPa | 0 mm | - | 0 W/m² | - |
| 1777546986 | 15.56° C | 33% | 1011.8 hPa | 0 mm | - | 0 W/m² | - |
| 1777546684 | 15.56° C | 33% | 1011.8 hPa | 0 mm | - | 0 W/m² | - |
| 1777546380 | 15.56° C | 33% | 1011.8 hPa | 0 mm | - | 0 W/m² | - |
| 1777546077 | 15.56° C | 33% | 1011.9 hPa | 0 mm | - | 0 W/m² | - |
| 1777545773 | 15.56° C | 33% | 1012 hPa | 0 mm | - | 0 W/m² | - |
* Rain latest hour (hover to see other rain measurements)
** Current wind speed in m/s (hover to see current wind gust speed)